| time (UTC) | temp C | wind direction | speed KPH | gust KPH | rain 1hr cm | rain 24hr cm | rain mn cm | humidity % | barometer mb |
| 20260504012743 | 17 | 242 | 9.7 | 12.9 | 0.00 | 0.00 | 0.00 | 35 | 993.4 |
| 20260504012242 | 18 | 297 | 4.8 | 9.7 | 0.00 | 0.00 | 0.00 | 35 | 993.5 |
| 20260504011738 | 18 | 17 | 4.8 | 12.9 | 0.00 | 0.00 | 0.00 | 35 | 993.5 |
| 20260504011235 | 18 | 330 | 6.4 | 16.1 | 0.00 | 0.00 | 0.00 | 35 | 993.6 |
| 20260504010731 | 18 | 237 | 8.0 | 11.3 | 0.00 | 0.00 | 0.00 | 35 | 993.6 |
| 20260504010227 | 18 | 282 | 8.0 | 12.9 | 0.00 | 0.00 | 0.00 | 36 | 993.6 |
| 20260504005724 | 18 | 216 | 8.0 | 17.7 | 0.00 | 0.00 | 0.00 | 36 | 994.4 |
| 20260504005221 | 18 | 315 | 8.0 | 11.3 | 0.00 | 0.00 | 0.00 | 35 | 994.1 |
| 20260504004719 | 19 | 203 | 6.4 | 11.3 | 0.00 | 0.00 | 0.00 | 37 | 994.3 |
| 20260504004215 | 19 | 238 | 4.8 | 14.5 | 0.00 | 0.00 | 0.00 | 36 | 994.2 |
| 20260504003712 | 19 | 4 | 8.0 | 17.7 | 0.00 | 0.00 | 0.00 | 37 | 994.0 |
| 20260504003209 | 20 | 331 | 8.0 | 12.9 | 0.00 | 0.00 | 0.00 | 40 | 994.3 |
| 20260504002706 | 20 | 251 | 3.2 | 11.3 | 0.00 | 0.00 | 0.00 | 43 | 994.0 |
| 20260504002203 | 20 | 342 | 3.2 | 11.3 | 0.00 | 0.00 | 0.00 | 43 | 994.1 |
| 20260504001701 | 20 | 199 | 6.4 | 9.7 | 0.00 | 0.00 | 0.00 | 43 | 994.0 |
| 20260504001157 | 20 | 308 | 3.2 | 12.9 | 0.00 | 0.00 | 0.00 | 42 | 994.2 |
| 20260504000654 | 20 | 280 | 4.8 | 9.7 | 0.00 | 0.00 | 0.00 | 43 | 994.3 |
| 20260504000151 | 20 | 308 | 3.2 | 11.3 | 0.00 | 0.00 | 0.00 | 43 | 994.3 |
| 20260503235649 | 20 | 266 | 3.2 | 16.1 | 0.00 | 0.00 | 0.00 | 43 | 994.4 |
| 20260503235145 | 20 | 347 | 8.0 | 20.9 | 0.00 | 0.00 | 0.00 | 42 | 994.5 |
| 20260503234644 | 20 | 301 | 8.0 | 16.1 | 0.00 | 0.00 | 0.00 | 42 | 994.6 |
| 20260503234142 | 20 | 267 | 14.5 | 24.1 | 0.00 | 0.00 | 0.00 | 41 | 994.7 |
| 20260503233638 | 20 | 218 | 8.0 | 20.9 | 0.00 | 0.00 | 0.00 | 42 | 994.6 |
| 20260503233134 | 20 | 356 | 3.2 | 22.5 | 0.00 | 0.00 | 0.00 | 42 | 994.8 |
| 20260503232631 | 20 | 252 | 9.7 | 17.7 | 0.00 | 0.00 | 0.00 | 42 | 994.8 |
| 20260503232128 | 20 | 293 | 14.5 | 24.1 | 0.00 | 0.00 | 0.00 | 42 | 995.1 |
| 20260503231626 | 20 | 283 | 12.9 | 17.7 | 0.00 | 0.00 | 0.00 | 41 | 995.1 |
| 20260503231122 | 20 | 298 | 17.7 | 25.7 | 0.00 | 0.00 | 0.00 | 40 | 995.1 |
| 20260503230619 | 20 | 301 | 12.9 | 22.5 | 0.00 | 0.00 | 0.00 | 39 | 994.9 |
| 20260503230117 | 20 | 216 | 6.4 | 17.7 | 0.00 | 0.00 | 0.00 | 39 | 995.0 |
| 20260503225614 | 20 | 212 | 9.7 | 25.7 | 0.00 | 0.00 | 0.00 | 38 | 995.1 |
| 20260503225113 | 21 | 241 | 11.3 | 20.9 | 0.00 | 0.00 | 0.00 | 38 | 995.1 |
| 20260503224611 | 21 | 255 | 9.7 | 24.1 | 0.00 | 0.00 | 0.00 | 37 | 994.8 |
| 20260503224109 | 21 | 313 | 11.3 | 33.8 | 0.00 | 0.00 | 0.00 | 37 | 994.9 |
| 20260503223607 | 21 | 311 | 14.5 | 25.7 | 0.00 | 0.00 | 0.00 | 36 | 995.0 |
| 20260503223102 | 21 | 270 | 8.0 | 20.9 | 0.00 | 0.00 | 0.00 | 35 | 995.0 |
| 20260503222600 | 21 | 254 | 4.8 | 14.5 | 0.00 | 0.00 | 0.00 | 34 | 995.0 |
| 20260503222058 | 21 | 247 | 4.8 | 27.4 | 0.00 | 0.00 | 0.00 | 34 | 995.3 |
| 20260503221555 | 21 | 233 | 6.4 | 22.5 | 0.00 | 0.00 | 0.00 | 35 | 995.1 |
| 20260503221053 | 20 | 329 | 4.8 | 22.5 | 0.00 | 0.00 | 0.00 | 35 | 995.5 |
| 20260503220549 | 21 | 208 | 11.3 | 24.1 | 0.00 | 0.00 | 0.00 | 34 | 995.5 |
| 20260503220046 | 21 | 279 | 17.7 | 29.0 | 0.00 | 0.00 | 0.00 | 33 | 995.6 |
| 20260503215543 | 21 | 315 | 4.8 | 16.1 | 0.00 | 0.00 | 0.00 | 28 | 995.7 |
| 20260503215040 | 22 | 228 | 1.6 | 4.8 | 0.00 | 0.00 | 0.00 | 28 | 995.9 |
| 20260503214538 | 22 | 309 | 12.9 | 25.7 | 0.00 | 0.00 | 0.00 | 27 | 995.8 |
| 20260503214035 | 22 | 256 | 8.0 | 16.1 | 0.00 | 0.00 | 0.00 | 28 | 995.7 |
| 20260503213533 | 22 | 210 | 1.6 | 8.0 | 0.00 | 0.00 | 0.00 | 28 | 995.8 |
| 20260503213030 | 22 | 182 | 3.2 | 11.3 | 0.00 | 0.00 | 0.00 | 29 | 995.8 |
| 20260503212527 | 21 | 215 | 1.6 | 4.8 | 0.00 | 0.00 | 0.00 | 29 | 995.9 |
| 20260503212024 | 21 | 260 | 6.4 | 12.9 | 0.00 | 0.00 | 0.00 | 29 | 996.3 |
| 20260503211521 | 20 | 262 | 11.3 | 24.1 | 0.00 | 0.00 | 0.00 | 30 | 996.3 |
| 20260503211017 | 20 | 354 | 4.8 | 11.3 | 0.00 | 0.00 | 0.00 | 32 | 996.7 |
| 20260503210514 | 20 | 140 | 1.6 | 3.2 | 0.00 | 0.00 | 0.00 | 33 | 997.0 |
| 20260503210009 | 20 | 201 | 1.6 | 9.7 | 0.00 | 0.00 | 0.00 | 32 | 997.1 |
| 20260503205506 | 20 | 239 | 4.8 | 16.1 | 0.00 | 0.00 | 0.00 | 32 | 997.5 |
| 20260503205002 | 20 | 253 | 6.4 | 14.5 | 0.00 | 0.00 | 0.00 | 32 | 997.2 |
| 20260503204500 | 20 | 329 | 9.7 | 16.1 | 0.00 | 0.00 | 0.00 | 32 | 997.3 |
| 20260503203956 | 21 | 208 | 3.2 | 9.7 | 0.00 | 0.00 | 0.00 | 29 | 997.2 |
| 20260503203454 | 21 | 284 | 8.0 | 22.5 | 0.00 | 0.00 | 0.00 | 29 | 997.5 |
| 20260503202950 | 21 | 327 | 4.8 | 11.3 | 0.00 | 0.00 | 0.00 | 29 | 997.4 |
| 20260503202449 | 21 | 237 | 1.6 | 9.7 | 0.00 | 0.00 | 0.00 | 29 | 997.6 |
| 20260503201947 | 21 | 292 | 8.0 | 14.5 | 0.00 | 0.00 | 0.00 | 29 | 998.0 |
| 20260503201444 | 21 | 220 | 6.4 | 14.5 | 0.00 | 0.00 | 0.00 | 29 | 998.4 |
| 20260503200941 | 21 | 320 | 11.3 | 16.1 | 0.00 | 0.00 | 0.00 | 30 | 998.5 |
| 20260503200438 | 21 | 324 | 14.5 | 27.4 | 0.00 | 0.00 | 0.00 | 29 | 998.6 |
| 20260503195934 | 21 | 266 | 8.0 | 16.1 | 0.00 | 0.00 | 0.00 | 29 | 998.8 |
| 20260503195432 | 21 | 308 | 6.4 | 16.1 | 0.00 | 0.00 | 0.00 | 28 | 999.2 |
| 20260503194928 | 22 | 256 | 11.3 | 17.7 | 0.00 | 0.00 | 0.00 | 29 | 999.2 |
| 20260503194425 | 22 | 299 | 1.6 | 17.7 | 0.00 | 0.00 | 0.00 | 29 | 999.4 |
| 20260503193920 | 22 | 256 | 8.0 | 16.1 | 0.00 | 0.00 | 0.00 | 30 | 999.5 |
| 20260503193416 | 21 | 273 | 3.2 | 27.4 | 0.00 | 0.00 | 0.00 | 30 | 999.7 |
| 20260503192912 | 21 | 250 | 9.7 | 20.9 | 0.00 | 0.00 | 0.00 | 30 | 999.8 |
| 20260503192408 | 21 | 150 | 4.8 | 16.1 | 0.00 | 0.00 | 0.00 | 31 | 1000.0 |
| 20260503191904 | 21 | 228 | 3.2 | 16.1 | 0.00 | 0.00 | 0.00 | 31 | 1000.1 |
| 20260503191402 | 21 | 243 | 4.8 | 17.7 | 0.00 | 0.00 | 0.00 | 32 | 1000.3 |
| 20260503190858 | 21 | 237 | 3.2 | 17.7 | 0.00 | 0.00 | 0.00 | 31 | 1000.4 |
| 20260503190355 | 21 | 223 | 11.3 | 17.7 | 0.00 | 0.00 | 0.00 | 31 | 1000.8 |
| 20260503185852 | 21 | 262 | 0.0 | 9.7 | 0.00 | 0.00 | 0.00 | 32 | 1000.7 |
| 20260503185348 | 21 | 198 | 1.6 | 4.8 | 0.00 | 0.00 | 0.00 | 33 | 1000.7 |
| 20260503184848 | 21 | 193 | 1.6 | 9.7 | 0.00 | 0.00 | 0.00 | 32 | 1001.1 |
| 20260503184344 | 20 | 80 | 3.2 | 12.9 | 0.00 | 0.00 | 0.00 | 33 | 1001.2 |
| 20260503183840 | 20 | 187 | 3.2 | 12.9 | 0.00 | 0.00 | 0.00 | 33 | 1001.4 |
| 20260503183338 | 20 | 207 | 4.8 | 9.7 | 0.00 | 0.00 | 0.00 | 33 | 1001.8 |
| 20260503182835 | 20 | 254 | 8.0 | 14.5 | 0.00 | 0.00 | 0.00 | 33 | 1001.7 |
| 20260503182334 | 21 | 185 | 3.2 | 12.9 | 0.00 | 0.00 | 0.00 | 33 | 1001.9 |
| 20260503181831 | 21 | 308 | 3.2 | 4.8 | 0.00 | 0.00 | 0.00 | 33 | 1002.1 |
| 20260503181328 | 21 | 202 | 3.2 | 8.0 | 0.00 | 0.00 | 0.00 | 33 | 1002.3 |
| 20260503180824 | 21 | 227 | 3.2 | 16.1 | 0.00 | 0.00 | 0.00 | 33 | 1002.3 |
| 20260503180322 | 21 | 208 | 3.2 | 11.3 | 0.00 | 0.00 | 0.00 | 32 | 1002.5 |
| 20260503175818 | 20 | 232 | 1.6 | 4.8 | 0.00 | 0.00 | 0.00 | 31 | 1002.9 |
| 20260503175317 | 20 | 273 | 3.2 | 4.8 | 0.00 | 0.00 | 0.00 | 31 | 1003.3 |
| 20260503174812 | 20 | 314 | 4.8 | 9.7 | 0.00 | 0.00 | 0.00 | 31 | 1003.1 |
| 20260503174310 | 20 | 240 | 4.8 | 14.5 | 0.00 | 0.00 | 0.00 | 31 | 1003.5 |
| 20260503173806 | 20 | 201 | 4.8 | 8.0 | 0.00 | 0.00 | 0.00 | 30 | 1003.3 |
| 20260503173302 | 20 | 326 | 3.2 | 9.7 | 0.00 | 0.00 | 0.00 | 31 | 1003.7 |
| 20260503172759 | 20 | 275 | 6.4 | 11.3 | 0.00 | 0.00 | 0.00 | 31 | 1003.7 |
| 20260503172256 | 20 | 297 | 1.6 | 3.2 | 0.00 | 0.00 | 0.00 | 32 | 1003.8 |
| 20260503171752 | 19 | 328 | 3.2 | 11.3 | 0.00 | 0.00 | 0.00 | 33 | 1004.4 |
| 20260503171249 | 20 | 214 | 1.6 | 4.8 | 0.00 | 0.00 | 0.00 | 32 | 1004.6 |
| 20260503170746 | 19 | 107 | 4.8 | 8.0 | 0.00 | 0.00 | 0.00 | 33 | 1004.7 |
| 20260503170243 | 18 | 359 | 4.8 | 12.9 | 0.00 | 0.00 | 0.00 | 34 | 1004.7 |
| 20260503160205 | 16 | 287 | 6.4 | 8.0 | 0.00 | 0.00 | 0.00 | 40 | 1006.3 |
| 20260503150635 | 13 | 210 | 3.2 | 8.0 | 0.00 | 0.00 | 0.00 | 47 | 1007.4 |
| 20260503150131 | 13 | 314 | 1.6 | 8.0 | 0.00 | 0.00 | 0.00 | 48 | 1007.5 |
| 20260503131025 | 6 | 275 | 3.2 | 4.8 | 0.00 | 0.00 | 0.00 | 61 | 1009.3 |
| 20260503130522 | 6 | 290 | 1.6 | 8.0 | 0.00 | 0.00 | 0.00 | 61 | 1009.3 |
| 20260503110413 | 0 | 218 | 0.0 | 0.0 | 0.00 | 0.00 | 0.00 | 82 | 1010.0 |
| 20260503090304 | 2 | 229 | 0.0 | 1.6 | 0.00 | 0.00 | 0.00 | 73 | 1010.5 |
| 20260503081231 | 2 | 223 | 0.0 | 0.0 | 0.00 | 0.00 | 0.00 | 76 | 1010.5 |
| 20260503080726 | 3 | 223 | 0.0 | 1.6 | 0.00 | 0.00 | 0.00 | 76 | 1010.5 |
| 20260503080224 | 3 | 223 | 0.0 | 0.0 | 0.00 | 0.00 | 0.00 | 76 | 1010.3 |
| 20260503072701 | 2 | 215 | 0.0 | 0.0 | 0.00 | 0.00 | 0.00 | 74 | 1010.5 |
| 20260503072157 | 3 | 215 | 0.0 | 0.0 | 0.00 | 0.00 | 0.00 | 74 | 1010.4 |
| 20260503071654 | 3 | 215 | 0.0 | 0.0 | 0.00 | 0.00 | 0.00 | 74 | 1010.8 |
| 20260503071151 | 3 | 215 | 0.0 | 0.0 | 0.00 | 0.00 | 0.00 | 73 | 1010.6 |
| 20260503070648 | 3 | 215 | 0.0 | 0.0 | 0.00 | 0.00 | 0.00 | 73 | 1010.7 |
| 20260503070146 | 3 | 215 | 0.0 | 0.0 | 0.00 | 0.00 | 0.00 | 72 | 1010.6 |
| 20260503060110 | 7 | 196 | 0.0 | 0.0 | 0.00 | 0.00 | 0.00 | 61 | 1010.5 |
| 20260503055102 | 6 | 160 | 1.6 | 3.2 | 0.00 | 0.00 | 0.00 | 61 | 1010.8 |
| 20260503054557 | 6 | 192 | 0.0 | 1.6 | 0.00 | 0.00 | 0.00 | 62 | 1010.6 |
| 20260503054054 | 7 | 212 | 0.0 | 0.0 | 0.00 | 0.00 | 0.00 | 62 | 1010.8 |
| 20260503053553 | 7 | 209 | 0.0 | 0.0 | 0.00 | 0.00 | 0.00 | 61 | 1011.0 |
| 20260503053050 | 7 | 204 | 0.0 | 1.6 | 0.00 | 0.00 | 0.00 | 60 | 1011.2 |
| 20260503052547 | 7 | 194 | 0.0 | 3.2 | 0.00 | 0.00 | 0.00 | 60 | 1010.9 |
| 20260503052043 | 8 | 211 | 0.0 | 3.2 | 0.00 | 0.00 | 0.00 | 59 | 1011.2 |
| 20260503051538 | 8 | 215 | 0.0 | 1.6 | 0.00 | 0.00 | 0.00 | 58 | 1011.3 |
| 20260503051037 | 8 | 196 | 0.0 | 4.8 | 0.00 | 0.00 | 0.00 | 58 | 1011.2 |
| 20260503050532 | 8 | 217 | 1.6 | 3.2 | 0.00 | 0.00 | 0.00 | 57 | 1010.9 |
| 20260503050030 | 8 | 197 | 1.6 | 3.2 | 0.00 | 0.00 | 0.00 | 56 | 1011.0 |
| 20260503045527 | 8 | 24 | 4.8 | 11.3 | 0.00 | 0.00 | 0.00 | 56 | 1010.9 |
| 20260503045024 | 8 | 55 | 3.2 | 3.2 | 0.00 | 0.00 | 0.00 | 56 | 1010.8 |
| 20260503044520 | 8 | 180 | 0.0 | 3.2 | 0.00 | 0.00 | 0.00 | 57 | 1010.8 |
| 20260503044018 | 9 | 26 | 3.2 | 4.8 | 0.00 | 0.00 | 0.00 | 55 | 1010.6 |
| 20260503043514 | 9 | 78 | 6.4 | 11.3 | 0.00 | 0.00 | 0.00 | 55 | 1010.6 |
| 20260503043011 | 10 | 40 | 3.2 | 3.2 | 0.00 | 0.00 | 0.00 | 55 | 1010.8 |
| 20260503042508 | 10 | 30 | 6.4 | 9.7 | 0.00 | 0.00 | 0.00 | 54 | 1010.6 |
| 20260503042004 | 10 | 20 | 1.6 | 11.3 | 0.00 | 0.00 | 0.00 | 54 | 1010.7 |
| 20260503041501 | 10 | 139 | 1.6 | 8.0 | 0.00 | 0.00 | 0.00 | 54 | 1010.7 |
| 20260503040959 | 10 | 34 | 4.8 | 8.0 | 0.00 | 0.00 | 0.00 | 54 | 1010.7 |
| 20260503040456 | 10 | 326 | 4.8 | 9.7 | 0.00 | 0.00 | 0.00 | 53 | 1010.6 |
| 20260503035953 | 11 | 16 | 4.8 | 4.8 | 0.00 | 0.00 | 0.00 | 54 | 1010.5 |
| 20260503035450 | 11 | 275 | 1.6 | 12.9 | 0.00 | 0.00 | 0.00 | 53 | 1010.7 |
| 20260503034948 | 11 | 10 | 3.2 | 8.0 | 0.00 | 0.00 | 0.00 | 53 | 1010.5 |
| 20260503034444 | 11 | 175 | 3.2 | 9.7 | 0.00 | 0.00 | 0.00 | 51 | 1010.3 |
| 20260503033941 | 11 | 335 | 1.6 | 8.0 | 0.00 | 0.00 | 0.00 | 50 | 1010.1 |
| 20260503033439 | 11 | 1 | 4.8 | 12.9 | 0.00 | 0.00 | 0.00 | 49 | 1010.1 |
| 20260503032937 | 11 | 241 | 9.7 | 14.5 | 0.00 | 0.00 | 0.00 | 49 | 1010.4 |
| 20260503032435 | 11 | 229 | 3.2 | 4.8 | 0.00 | 0.00 | 0.00 | 48 | 1010.4 |
| 20260503031932 | 12 | 227 | 3.2 | 9.7 | 0.00 | 0.00 | 0.00 | 49 | 1010.2 |
| 20260503031430 | 12 | 35 | 6.4 | 9.7 | 0.00 | 0.00 | 0.00 | 49 | 1010.3 |
| 20260503030926 | 12 | 206 | 3.2 | 4.8 | 0.00 | 0.00 | 0.00 | 50 | 1010.2 |
| 20260503030423 | 12 | 319 | 3.2 | 4.8 | 0.00 | 0.00 | 0.00 | 51 | 1010.3 |
| 20260503025920 | 12 | 251 | 3.2 | 4.8 | 0.00 | 0.00 | 0.00 | 51 | 1010.3 |
| 20260503025417 | 12 | 206 | 1.6 | 8.0 | 0.00 | 0.00 | 0.00 | 50 | 1010.2 |
| 20260503024914 | 12 | 247 | 1.6 | 3.2 | 0.00 | 0.00 | 0.00 | 53 | 1010.2 |
| 20260503024411 | 13 | 318 | 4.8 | 9.7 | 0.00 | 0.00 | 0.00 | 50 | 1010.1 |
| 20260503023908 | 13 | 222 | 3.2 | 4.8 | 0.00 | 0.00 | 0.00 | 50 | 1009.9 |
| 20260503023405 | 13 | 286 | 3.2 | 8.0 | 0.00 | 0.00 | 0.00 | 52 | 1010.1 |
| 20260503022902 | 12 | 213 | 1.6 | 8.0 | 0.00 | 0.00 | 0.00 | 55 | 1009.8 |
| 20260503022401 | 13 | 160 | 1.6 | 4.8 | 0.00 | 0.00 | 0.00 | 56 | 1009.9 |
| 20260503021858 | 13 | 288 | 1.6 | 3.2 | 0.00 | 0.00 | 0.00 | 54 | 1009.9 |
| 20260503021354 | 13 | 224 | 1.6 | 8.0 | 0.00 | 0.00 | 0.00 | 52 | 1010.1 |
| 20260503020852 | 13 | 175 | 1.6 | 8.0 | 0.00 | 0.00 | 0.00 | 53 | 1009.8 |
| 20260503020350 | 13 | 247 | 1.6 | 4.8 | 0.00 | 0.00 | 0.00 | 55 | 1009.6 |
| 20260503015846 | 13 | 228 | 1.6 | 3.2 | 0.00 | 0.00 | 0.00 | 55 | 1009.8 |
| 20260503015343 | 13 | 226 | 1.6 | 3.2 | 0.00 | 0.00 | 0.00 | 53 | 1009.6 |
| 20260503014838 | 14 | 224 | 3.2 | 12.9 | 0.00 | 0.00 | 0.00 | 52 | 1009.5 |
| 20260503014336 | 14 | 299 | 4.8 | 8.0 | 0.00 | 0.00 | 0.00 | 51 | 1009.4 |
| 20260503013834 | 15 | 285 | 3.2 | 4.8 | 0.00 | 0.00 | 0.00 | 50 | 1009.6 |
| 20260503013331 | 15 | 202 | 4.8 | 4.8 | 0.00 | 0.00 | 0.00 | 48 | 1009.4 |
| 20260503012828 | 15 | 218 | 1.6 | 1.6 | 0.00 | 0.00 | 0.00 | 43 | 1009.2 |